Terminal Aerodrome Forecast
Issued by NWS

Home | Current Version | Previous Version | Text Only | Print | Product List | Glossary On
Versions: 1 2 3 4 5 6 7 8 9 10 11 12 13 14 15 16 17 18 19 20
744
FTUS46 KMFR 030554 CCA
TAFLMT
TAF COR
KLMT 030554Z 0306/0406 VRB03KT P6SM OVC020
     FM031000 17003KT P6SM FEW007 SCT010 OVC020
     FM031900 29003KT P6SM SCT040 BKN080=

USA.gov is the U.S. government's official web portal to all federal, state and local government web resources and services.